Regional Weather Roundup
Issued by NWS

Home | Current Version | Previous Version | Text Only | Print | Product List | Glossary On
Versions: 1 2 3 4 5 6 7 8 9 10 11 12 13 14 15 16 17 18 19 20 21 22 23 24 25 26 27 28 29 30 31 32 33 34 35 36 37 38 39 40 41 42 43 44 45 46 47 48 49 50
000
ASUS43 KLOT 241009
RWRIL

ILLINOIS REGIONAL WEATHER ROUNDUP
NATIONAL WEATHER SERVICE CHICAGO/ROMEOVILLE IL
500 AM CDT THU JUN 24 2021

NOTE: "FAIR" INDICATES FEW OR NO CLOUDS BELOW 12,000 FEET WITH NO
SIGNIFICANT WEATHER AND/OR OBSTRUCTIONS TO VISIBILITY.

* THESE STATIONS ARE NOT UNDER NWS QUALITY CONTROL. THEY ALSO MAY NOT
  REPORT WEATHER SUCH AS PRECIPITATION OR FOG.

ILZ001-002-007-009-015-016-024-241100-
NORTHWEST ILLINOIS

CITY           SKY/WX    TMP DP  RH WIND       PRES   REMARKS
MOLINE         CLOUDY    72  58  61 S8        29.90R
STERLING*      CLOUDY    70  57  63 VRB6      29.92F
SAVANNA*       CLOUDY    68  57  68 S10       29.89F
$$

ILZ003-004-008-010-011-017-018-241100-
NORTH CENTRAL ILLINOIS

CITY           SKY/WX    TMP DP  RH WIND       PRES   REMARKS
ROCKFORD       CLOUDY    68  55  63 S12       29.94F
FREEPORT*      CLOUDY    68  55  63 S14       29.92F
ROCHELLE*      CLOUDY    66  57  71 S10       29.94F
DE KALB*       CLOUDY    65  57  76 S12       29.97F
PERU*          CLOUDY   N/A N/A N/A S9        29.96F
$$

ILZ005-006-012>014-019>023-241100-
NORTHEAST ILLINOIS

CITY           SKY/WX    TMP DP  RH WIND       PRES   REMARKS
CHICAGO-OHARE  MOCLDY    68  54  60 S9        29.98R
CHICAGO-MIDWAY CLOUDY    69  51  52 S12       30.00R
AURORA         CLOUDY    66  55  67 S12       29.97S
JOLIET*        CLOUDY    70  57  63 S9        30.00R
WAUKEGAN       PTCLDY    69  53  56 S13       29.95F
DUPAGE AIRPORT CLOUDY    68  54  60 S13       29.97S
KANKAKEE*      PTCLDY    64  55  72 S6        30.04R
WHEELING       PTCLDY    68  54  60 S10       29.99S
MORRIS*        CLOUDY    65  56  74 S8        29.99R
ROMEOVILLE*    CLOUDY    67  56  69 S13       30.00S
LANSING*       PTCLDY    64  52  65 S9G16     30.03R
NORTHERLY ISL*   N/A     68  52  56 SE10        N/A
$$

LMZ740>746-241100-
SOUTHERN LAKE MICHIGAN

STATION/POSITION SKY/WX   TEMP    WIND        PRES    VSBY  WAVE
                          AIR SEA DIR/SP/G                  HT/PER
                          (F)     (DEG/KT/KT) (MB)    (MI)  (FT/S)
WINTHROP HARBOR            59 54                N/A           1/ 4
WAUKEGAN HARBOR            63 59                N/A           1/ 4
WILMETTE HARBOR               64  180/ 14/ 17 1014.6R         2/ 3
HARRISON CRIB              69     190/ 17/ 19   N/A
NORTHERLY ISL              68     180/ 10/ 15   N/A
CALUMET HARBOR                    180/  9/ 15 1015.4
BURNS HARBOR               66     180/  7/ 10 1016.9R
MICHIGAN CITY              66     180/ 14/ 17 1016.4R
MICHIGAN CITY 6N           65                   N/A           2/ 2
ST. JOSEPH                 68 66  250/ 14/ 19 1017.0R         2/ 3
$$

ILZ025>027-034>036-040-047-049-050-058-095>099-241100-
WEST-CENTRAL ILLINOIS

CITY           SKY/WX    TMP DP  RH WIND       PRES   REMARKS
QUINCY         CLOUDY    72  56  57 S12       29.94S
GALESBURG*     CLOUDY    67  55  65 S9        29.95S
MACOMB*        CLOUDY    69  58  68 S8        29.96F
JACKSONVILLE*  CLOUDY    67  59  74 S8        29.97F
PITTSFIELD*    PTCLDY    69  60  73 S7        29.98S
$$

ILZ028>032-037-038-041>044-048-051>054-059>061-241100-
CENTRAL ILLINOIS

CITY           SKY/WX    TMP DP  RH WIND       PRES   REMARKS
PONTIAC        CLOUDY    65  56  74 S7        30.00F
BLOOMINGTON    MOCLDY    63  57  81 S7        30.02R
DECATUR        PTCLDY    66  57  72 S9        30.02S
PEORIA         CLOUDY    69  56  62 S12       29.96F
LACON*         CLOUDY    70  55  60 S9        29.95F
LINCOLN*       MOCLDY    67  54  63 S5        30.00S
SPRINGFIELD    MOCLDY    68  57  68 S12       29.99S
TAYLORVILLE    MOCLDY    64  55  72 S8        30.01F
$$

ILZ033-039-045-046-055>057-062-063-241100-
EAST-CENTRAL ILLINOIS

CITY           SKY/WX    TMP DP  RH WIND       PRES   REMARKS
CHAMPAIGN      PTCLDY    63  54  72 S9        30.04F
DANVILLE*      CLEAR     63  54  72 SE6       30.07R
RANTOUL*       PTCLDY    58  55  88 S5        30.04S
MATTOON        PTCLDY    62  55  77 S7        30.04R
PARIS*         CLEAR     57  57 100 SE5       30.07S
$$

ILZ079-100>102-241100-
SOUTHWEST ILLINOIS

CITY           SKY/WX    TMP DP  RH WIND       PRES   REMARKS
ALTON          MOCLDY    65  59  82 E3        30.01R
BELLEVILLE     MOCLDY    65  63  92 S3        29.99R
CAHOKIA*       MOCLDY    67  59  75 SE5       29.99R
$$

ILZ064>066-069>071-074>076-080>082-084>086-088>090-092>094-241100-
SOUTH-CENTRAL ILLINOIS

CITY           SKY/WX    TMP DP  RH WIND       PRES   REMARKS
CARBONDALE     MOCLDY    66  59  78 SE7       30.02F
CAIRO*         PTCLDY    70  59  68 S8        30.05S
EFFINGHAM*     PTCLDY    63  56  80 E6        30.06R
MARION         MOCLDY    66  59  79 S6        30.05S
MT. VERNON     MOCLDY    67  60  78 S7        30.04F
CENTRALIA*     MOCLDY    68  59  71 CALM      30.03R
SALEM*         PTCLDY    65  57  75 SE3       30.03S
$$

ILZ067-068-072-073-078-083-087-091-241100-
SOUTHEAST ILLINOIS

CITY           SKY/WX    TMP DP  RH WIND       PRES   REMARKS
LAWRENCEVILLE  PTCLDY    60  55  83 S5        30.07S
FLORA*         PTCLDY    61  57  88 S7        30.04F
FAIRFIELD*     MOCLDY    64  58  80 CALM      30.04F
HARRISBURG*    MOCLDY    64  58  82 CALM      30.05F
ROBINSON*      CLEAR     56  53  92 CALM      30.09R
CARMI*         PTCLDY    61  57  88 CALM      30.05F
$$

ABBREVIATIONS USED IN REMARKS
   TC - TEMPERATURE IN CELSIUS
  WCI - WIND CHILL INDEX
   HX - HEAT INDEX
  VSB - VISIBILITY
$$




USA.gov is the U.S. government's official web portal to all federal, state and local government web resources and services.